This is the latest recevied weather packets stored in our database for station/object DL2GPS-3. If no packets are shown the sender has not sent any weather packets the latest 10 day(s).
| Time | Temp. | Humidity | Pressure | Rain* | Wind** | Luminosity | Snow |
|---|---|---|---|---|---|---|---|
| 1777848578 | 11.11° C | 72% | 1017.2 hPa | - | - | - | - |
| 1777847973 | 11.67° C | 71% | 1017.1 hPa | - | - | - | - |
| 1777847369 | 11.67° C | 68% | 1017.1 hPa | - | - | - | - |
| 1777846763 | 12.22° C | 67% | 1017 hPa | - | - | - | - |
| 1777846159 | 12.22° C | 68% | 1017 hPa | - | - | - | - |
| 1777845554 | 11.67° C | 70% | 1016.9 hPa | - | - | - | - |
| 1777844949 | 11.67° C | 71% | 1016.9 hPa | - | - | - | - |
| 1777844343 | 11.67° C | 69% | 1017 hPa | - | - | - | - |
| 1777843738 | 11.67° C | 68% | 1016.9 hPa | - | - | - | - |
| 1777843135 | 11.67° C | 68% | 1016.8 hPa | - | - | - | - |
| 1777842529 | 12.22° C | 67% | 1016.8 hPa | - | - | - | - |
| 1777841924 | 12.22° C | 64% | 1016.9 hPa | - | - | - | - |
| 1777841319 | 12.22° C | 63% | 1016.9 hPa | - | - | - | - |
| 1777840714 | 12.78° C | 65% | 1016.9 hPa | - | - | - | - |
| 1777840109 | 12.22° C | 66% | 1016.9 hPa | - | - | - | - |
| 1777839504 | 12.22° C | 63% | 1016.9 hPa | - | - | - | - |
| 1777838899 | 12.22° C | 62% | 1017 hPa | - | - | - | - |
| 1777838294 | 12.22° C | 62% | 1017 hPa | - | - | - | - |
| 1777837689 | 12.22° C | 60% | 1016.9 hPa | - | - | - | - |
| 1777837083 | 12.22° C | 60% | 1016.8 hPa | - | - | - | - |
| 1777836478 | 12.22° C | 59% | 1016.8 hPa | - | - | - | - |
| 1777835873 | 12.22° C | 58% | 1016.6 hPa | - | - | - | - |
| 1777835268 | 12.22° C | 57% | 1016.7 hPa | - | - | - | - |
| 1777834662 | 12.22° C | 55% | 1016.6 hPa | - | - | - | - |
| 1777834058 | 12.22° C | 55% | 1016.6 hPa | - | - | - | - |
* Rain since midnight (hover to see other rain measurements)
** Current wind speed in m/s (hover to see current wind gust speed)